Theta_e
330 338 334 327 313 311 307 309 316 313 315 321 323 320 319 322 318 316 338 339 339 332 340 344 347 349 348 348 347 346 346 345 344 341 339 338 337 337 337 337 340 339 339 338 336 339 340 338 338
327 332 329 322 309 303 304 312 311 315 319 322 323 321 320 320 330 332 334 339 336 330 340 342 345 348 349 348 347 346 346 345 343 340 338 337 337 337 337 336 337 337 337 336 335 337 339 339 338
326 330 321 313 310 306 306 312 313 319 322 322 320 324 323 325 331 333 339 339 331 334 343 342 345 347 348 348 348 346 345 346 343 341 338 336 336 337 336 335 335 337 338 335 334 336 336 336 336
323 324 320 308 307 311 311 313 316 318 320 323 323 318 327 334 333 338 340 336 330 338 344 343 345 347 347 347 346 346 346 345 341 338 339 338 335 335 335 335 334 336 336 335 333 335 334 334 333
323 321 309 306 306 312 313 313 318 317 318 319 322 319 323 333 338 340 339 333 333 338 342 345 344 346 346 346 346 346 345 344 342 340 339 337 336 336 338 335 335 334 334 335 333 334 333 332 330
314 318 306 303 306 311 313 314 317 318 318 319 320 320 325 336 337 339 339 334 336 338 341 343 339 341 344 345 346 345 344 343 341 341 340 339 337 337 337 336 333 332 332 332 332 332 331 330 329
310 312 307 305 305 307 312 316 315 317 317 317 322 317 327 332 339 340 338 335 336 339 339 340 341 340 337 340 341 342 342 339 338 339 339 337 335 336 336 336 337 332 332 332 330 329 329 329 329
313 312 309 309 305 305 314 315 318 317 315 321 323 313 318 332 339 340 338 335 334 338 339 339 340 341 340 341 333 335 338 337 337 336 334 332 333 333 331 333 335 335 334 332 330 330 329 329 329
315 306 304 308 307 306 315 313 317 320 316 318 321 319 326 336 336 336 336 334 333 336 338 339 339 339 338 337 333 330 332 333 332 332 329 328 332 332 330 329 331 332 335 333 333 331 330 330 329
306 304 306 314 315 311 313 314 314 313 313 314 318 324 330 335 331 331 332 331 332 333 336 338 339 339 338 336 337 335 335 335 333 333 333 333 332 331 330 327 327 330 329 331 333 332 331 326 327
306 303 310 311 315 316 313 314 316 312 310 315 315 321 330 330 329 329 331 333 333 334 336 337 338 339 338 337 338 336 336 336 335 334 333 332 331 332 330 331 329 330 324 330 330 330 329 329 328
297 305 308 308 311 315 312 315 313 313 314 319 321 324 330 328 329 329 330 333 334 335 335 337 338 338 338 338 337 337 337 336 335 335 335 333 332 332 330 329 330 331 330 329 330 329 329 328 328
306 306 304 309 308 312 316 312 313 313 318 320 321 326 328 329 331 333 336 336 335 334 336 337 339 338 337 337 337 337 336 336 336 336 335 335 333 333 331 330 330 329 330 329 329 329 328 328 329
305 305 305 305 307 309 310 313 312 315 319 318 320 325 327 328 330 332 333 334 333 335 336 337 337 338 337 337 337 336 337 336 336 336 336 336 334 334 332 331 331 331 331 330 329 329 329 329 329
306 299 302 305 304 305 310 306 309 316 318 316 319 322 325 328 330 330 332 333 335 336 337 336 337 339 337 337 337 337 336 335 335 335 336 335 335 334 333 332 332 332 332 331 330 330 330 329 329
301 302 297 305 308 305 306 299 308 317 316 315 317 320 323 326 329 331 333 334 336 336 336 337 336 336 339 337 338 337 338 337 336 336 336 335 334 334 333 332 332 332 332 331 330 330 328 328 327
297 294 297 301 308 303 303 300 307 313 314 315 317 318 321 324 328 331 333 334 335 336 336 336 336 336 339 339 339 338 338 338 337 337 337 336 335 334 333 333 333 333 332 331 331 329 328 327 327
292 293 299 299 303 305 299 300 305 307 307 311 316 318 319 321 324 329 332 334 335 337 337 338 338 339 339 340 340 338 337 338 338 338 338 337 336 335 335 335 334 333 332 331 330 328 328 327 327
295 294 293 300 301 301 298 299 302 306 305 305 308 315 317 320 324 328 330 333 334 336 336 337 336 337 338 338 337 335 334 337 337 339 339 339 337 336 336 335 333 333 332 331 331 328 326 325 326
294 291 291 296 296 296 298 298 301 304 305 306 306 308 313 318 321 324 328 330 331 332 334 335 336 337 338 339 339 336 335 335 338 339 339 339 339 338 337 336 333 331 331 331 331 329 326 327 329
290 289 291 291 293 294 294 295 299 302 303 305 307 308 309 310 314 320 322 326 330 331 332 333 335 336 338 339 339 337 338 337 336 337 338 339 340 339 338 336 336 333 331 329 332 331 328 325 328
287 293 293 290 288 284 292 287 296 300 299 300 302 304 306 309 310 311 314 319 320 326 331 334 334 335 336 338 337 336 333 332 334 336 338 339 340 339 338 337 336 336 332 330 331 332 331 329 325
289 294 292 291 288 289 288 285 291 298 296 299 300 301 304 306 308 309 311 313 314 319 320 322 327 332 334 335 336 336 335 334 335 335 337 338 339 339 338 337 336 335 333 331 331 331 332 331 328
294 292 291 291 289 279 286 287 290 294 294 297 300 300 301 302 304 305 306 306 307 312 314 315 314 314 321 331 334 334 334 334 333 334 334 336 337 336 337 336 336 335 334 331 330 330 331 331 331
292 289 281 279 280 278 288 285 288 296 295 296 296 298 299 300 301 302 302 303 303 303 305 307 309 310 313 318 325 331 333 333 333 334 334 333 333 332 332 334 333 333 333 331 329 329 329 331 329
289 289 282 276 277 280 287 282 287 295 298 297 296 297 298 299 300 301 302 302 303 304 306 307 307 305 308 312 317 323 327 330 330 332 333 333 333 333 332 331 329 329 328 328 328 327 327 327 327
288 285 290 283 281 281 283 287 291 293 293 294 294 296 297 300 301 302 303 304 304 305 306 306 307 308 309 310 312 317 323 325 327 329 331 331 331 329 330 329 327 327 326 326 325 323 319 318 319
291 293 283 284 277 276 281 283 284 289 291 293 294 296 298 300 301 303 303 303 304 305 306 306 306 305 306 307 309 310 315 318 319 319 319 321 322 323 320 323 324 324 323 320 316 312 310 309 309
288 287 287 286 284 279 277 281 291 291 293 293 295 296 297 299 300 301 303 304 304 305 304 304 303 303 303 303 304 305 305 306 308 310 313 313 314 314 314 316 317 316 315 314 311 308 306 306 304
292 288 287 282 280 283 283 282 294 293 295 295 295 296 298 299 300 301 302 303 304 303 303 302 302 302 300 300 301 301 301 302 304 305 306 307 308 309 311 311 311 310 308 307 306 303 302 302 299
Wind_Speed
8 7 4 5 7 7 11 4 1 7 8 5 10 3 1 9 6 3 12 8 18 17 18 16 13 14 13 13 13 13 14 14 14 11 11 12 11 12 11 12 11 12 13 14 13 13 14 13 14
6 3 5 6 9 8 7 7 9 10 8 7 8 3 5 7 8 11 13 12 17 17 17 17 13 14 14 14 13 14 14 14 14 11 11 11 12 11 11 10 11 12 13 12 12 12 13 15 14
5 6 7 5 12 11 1 9 9 10 9 10 7 5 3 7 9 15 14 18 18 16 16 16 14 15 14 13 12 12 11 14 14 11 11 11 11 11 10 11 11 10 12 11 10 11 12 12 12
4 5 6 8 12 12 4 4 8 11 8 7 6 6 5 6 12 10 18 20 17 16 16 18 16 15 14 13 12 11 11 11 10 9 11 11 10 11 9 9 10 10 9 10 9 9 10 11 11
4 6 10 11 17 4 3 3 9 13 11 11 8 6 5 6 9 17 18 17 17 15 16 16 14 15 14 12 11 11 11 11 11 10 10 9 10 8 10 10 9 9 8 9 7 7 8 8 9
5 5 11 13 15 8 3 4 11 13 11 9 8 5 7 9 13 16 18 17 16 15 15 16 14 14 12 12 10 11 11 12 11 10 10 12 10 7 9 10 8 8 7 6 6 6 6 6 7
8 9 14 15 15 8 7 6 11 13 9 9 5 10 8 10 13 15 17 16 16 15 15 15 14 13 11 10 9 8 6 10 8 10 11 10 10 8 6 7 9 7 7 6 5 5 5 5 5
6 6 16 17 11 13 7 10 7 11 10 3 3 7 7 15 17 13 16 16 15 15 14 15 14 13 12 10 7 7 6 7 9 7 8 9 7 7 7 7 7 9 9 7 6 5 4 3 3
5 7 12 15 16 12 8 12 6 1 5 8 8 3 7 19 16 13 16 16 15 14 14 14 14 13 12 11 9 7 7 7 8 8 7 8 7 8 11 5 7 6 7 6 7 5 4 4 5
5 11 16 13 13 11 9 14 11 7 11 10 9 5 8 17 16 16 18 17 18 17 16 13 13 13 12 10 12 10 9 8 8 9 10 8 8 8 7 7 6 1 5 6 7 7 5 5 5
6 13 13 8 8 9 12 13 11 12 13 11 14 13 16 15 14 16 16 17 18 17 13 14 13 12 12 9 9 5 6 6 7 10 9 8 6 5 5 5 5 6 7 6 8 7 6 6 3
7 14 14 10 5 8 10 10 11 13 4 6 11 16 17 18 17 17 16 17 16 16 15 14 14 13 13 8 8 8 7 7 5 6 10 7 5 6 6 5 6 5 5 7 5 4 5 4 5
11 16 18 12 10 9 8 11 14 15 10 3 6 16 17 17 17 16 16 15 15 16 16 15 14 13 12 11 9 8 8 7 8 8 8 8 7 6 6 5 5 5 6 5 5 5 5 5 5
13 15 16 21 13 8 8 13 2 13 13 6 10 14 15 18 18 17 17 16 15 15 16 15 16 15 13 12 11 8 8 9 8 8 9 11 8 7 7 7 6 6 6 5 5 6 5 5 4
12 5 9 15 13 13 8 16 13 15 7 14 13 13 14 16 17 18 17 17 18 16 17 16 16 15 14 13 11 9 8 8 8 8 10 11 10 9 8 7 6 6 5 6 6 6 5 5 5
6 3 12 18 20 10 8 18 19 15 10 16 16 14 13 15 17 17 16 16 17 16 16 16 13 15 15 13 11 9 9 8 8 8 8 12 12 11 9 7 7 7 6 6 6 5 5 4 4
11 11 20 15 20 13 13 15 20 13 12 16 15 15 13 13 15 16 16 16 16 16 16 16 16 16 17 14 11 11 11 9 9 9 9 11 12 12 10 7 7 8 7 7 5 4 5 5 4
16 20 19 25 14 21 20 17 19 9 13 15 14 14 14 14 16 15 15 15 16 15 16 16 14 17 16 11 10 8 9 9 9 9 9 13 11 13 11 8 8 8 6 5 6 7 5 5 4
17 15 19 15 8 18 23 22 20 18 8 13 14 14 14 15 15 13 14 14 14 14 15 16 16 16 13 11 10 10 11 9 9 9 12 12 12 13 11 8 9 7 8 9 9 6 6 5 5
24 17 18 7 5 10 15 21 20 18 17 13 12 14 13 12 12 11 12 15 16 16 16 16 17 17 15 10 9 8 9 8 9 9 10 12 12 13 11 11 10 11 8 10 9 9 6 6 7
23 20 14 11 8 10 10 20 20 20 18 18 15 13 12 13 14 12 13 13 14 16 16 15 15 17 16 15 9 9 9 9 9 10 9 11 13 13 13 13 11 11 9 9 10 10 11 7 7
24 19 11 6 16 9 9 9 23 22 20 15 14 15 16 16 14 13 13 12 13 12 11 14 14 13 13 14 11 14 11 10 9 9 9 10 13 14 14 13 12 11 10 9 9 9 9 9 7
16 16 13 12 8 3 9 8 15 16 12 13 12 13 15 15 15 16 13 10 9 5 6 9 10 12 13 12 13 11 13 10 8 9 11 11 10 13 14 14 13 12 10 10 11 11 11 9 9
7 14 8 9 8 7 20 17 10 14 11 12 9 5 5 6 6 7 8 8 9 7 6 6 10 11 10 12 13 15 15 13 10 11 9 8 8 8 13 13 12 12 11 12 10 13 13 10 9
19 20 7 7 8 11 13 16 17 9 1 4 3 3 4 1 4 6 6 5 4 5 5 6 8 11 11 12 14 15 16 15 14 12 8 8 8 8 11 13 12 10 10 11 10 9 9 11 9
24 22 8 11 11 13 5 11 15 10 11 4 2 3 3 7 6 5 8 8 8 7 6 6 7 9 9 10 12 12 13 9 9 10 8 8 8 7 8 10 9 12 10 9 8 7 6 5 4
25 22 16 7 3 6 10 10 3 5 4 4 4 6 8 8 8 9 8 7 7 7 7 7 7 7 7 8 7 9 7 7 7 8 5 6 4 3 7 8 10 11 10 9 5 4 5 4 5
19 20 11 6 8 7 10 13 6 10 12 8 10 12 12 11 12 11 9 7 6 6 7 7 6 6 5 4 4 4 6 6 6 3 4 5 4 5 6 9 8 8 8 6 6 4 5 6 3
10 16 13 14 9 8 7 6 3 13 13 16 15 12 9 10 10 9 8 8 7 6 6 7 7 7 6 5 4 3 3 2 3 4 4 5 4 5 6 6 6 6 8 8 7 7 6 6 6
18 16 20 9 10 7 2 5 7 14 14 15 12 8 7 7 7 7 7 7 8 8 7 6 5 5 5 5 4 3 2 2 1 2 2 1 4 3 4 5 5 6 5 6 7 7 6 7 6
Wind_Direction
287 196 224 240 237 232 254 178 199 162 149 132 147 178 146 359 350 40 144 139 140 143 146 161 152 150 143 149 147 149 148 138 123 123 119 118 117 114 108 110 102 108 98 88 84 74 88 91 86
309 202 224 264 255 216 205 164 198 171 146 153 141 185 207 94 68 125 139 151 150 147 150 156 149 148 140 144 147 153 150 136 123 128 124 120 119 117 107 111 117 111 100 98 93 77 71 79 83
273 252 260 228 239 256 142 168 182 145 136 162 179 292 53 85 101 146 124 147 144 148 155 144 146 146 140 138 148 147 151 133 135 132 133 127 121 114 122 119 119 115 109 105 96 83 74 69 73
272 194 238 247 245 257 321 175 164 147 167 194 192 184 110 24 140 135 144 147 150 157 155 133 144 147 147 147 143 138 134 128 133 142 139 135 128 125 111 118 126 103 102 105 100 85 78 73 70
220 264 250 227 253 274 245 284 165 180 174 185 201 139 106 122 121 133 151 152 152 153 136 150 147 149 149 151 152 150 149 147 143 145 143 149 131 138 132 129 109 108 99 94 101 94 86 79 74
243 260 243 234 232 216 242 205 190 192 180 174 199 174 115 128 148 150 154 156 154 151 142 151 156 148 152 157 156 160 166 149 150 155 154 135 140 137 129 141 133 132 123 109 108 102 95 89 83
249 244 245 252 242 204 217 189 200 198 183 185 268 213 108 172 145 160 159 156 159 151 154 157 162 151 140 146 148 156 172 160 163 156 145 144 153 143 130 133 142 141 136 136 130 122 116 107 96
284 265 250 248 247 243 163 183 213 206 197 74 165 223 188 170 138 177 164 159 162 158 164 165 166 168 170 167 154 156 149 145 135 121 149 129 115 148 172 164 162 151 149 152 159 161 162 150 132
285 248 232 238 237 252 143 198 198 192 174 198 184 320 7 140 141 173 166 164 167 167 171 170 166 171 170 168 160 157 154 148 140 141 133 149 191 182 157 132 129 196 169 187 183 194 196 199 202
243 232 235 247 258 255 186 214 168 186 206 194 193 127 136 144 161 166 179 174 174 175 178 174 173 177 167 173 156 176 169 181 185 180 172 202 211 182 188 150 142 143 183 212 203 211 212 233 241
254 247 244 282 299 305 281 221 171 212 204 211 200 169 154 157 177 178 184 189 180 177 180 181 178 179 175 181 159 181 173 186 187 188 178 199 191 177 202 183 192 205 198 216 199 200 225 231 286
250 259 274 282 329 278 261 253 216 219 198 259 191 158 163 179 186 189 190 191 187 184 184 185 183 181 181 179 187 183 181 192 189 191 190 188 196 192 196 203 196 201 189 224 227 233 241 249 250
262 262 292 281 274 273 291 256 235 215 201 40 194 149 177 182 188 194 199 198 187 196 188 191 192 186 185 192 189 190 194 192 200 189 194 202 200 199 207 207 205 205 208 215 226 229 233 235 247
182 247 281 294 279 250 257 253 272 233 223 190 182 183 185 191 191 194 196 198 196 203 198 194 202 193 191 194 194 195 197 190 204 202 198 206 211 201 205 208 212 216 218 217 224 227 222 230 235
202 222 245 279 261 253 246 252 229 249 213 203 194 197 198 200 193 202 202 198 198 203 196 197 197 206 197 199 201 200 198 204 202 206 206 205 210 212 212 213 213 218 215 221 223 231 234 245 243
178 232 233 225 265 249 229 252 225 228 195 219 207 207 202 204 201 206 204 205 201 200 202 190 197 205 206 202 203 204 206 204 207 209 210 210 213 216 211 216 216 219 217 210 222 222 227 241 257
190 211 220 228 234 257 221 250 252 202 215 235 219 218 205 210 205 206 202 204 203 202 199 194 194 202 208 207 207 209 211 209 212 211 210 209 212 214 218 216 218 214 217 217 219 220 231 230 241
203 222 218 220 207 242 249 242 260 243 207 234 238 224 224 213 211 207 207 201 204 200 202 198 194 201 204 202 208 209 212 216 215 214 213 209 209 211 212 217 213 215 210 208 208 219 211 238 241
221 217 228 228 191 211 239 253 240 248 200 244 237 235 224 223 225 199 206 203 207 204 207 205 202 202 198 201 199 207 210 208 215 219 216 215 213 208 211 218 221 207 203 215 210 205 211 218 218
231 227 216 202 14 229 226 240 257 257 255 232 239 238 240 239 236 211 206 204 210 210 208 208 211 205 208 205 206 202 211 224 227 212 217 217 214 215 208 212 220 222 210 220 216 203 199 214 191
224 223 211 184 196 256 267 245 232 248 253 258 246 246 253 237 239 231 211 223 220 214 220 219 215 213 210 214 210 195 220 211 209 220 219 216 213 213 215 209 214 217 219 225 213 206 221 211 205
218 217 223 162 164 218 232 257 222 233 236 228 240 238 241 235 233 247 248 225 222 231 228 230 229 229 219 209 213 207 211 212 219 212 216 214 210 212 213 215 213 214 216 218 225 214 213 222 234
228 202 187 183 194 234 199 256 246 263 246 234 235 238 241 238 246 246 239 237 261 252 216 236 241 234 234 228 211 213 217 220 223 219 212 209 206 210 213 211 212 212 214 219 223 225 218 225 227
190 167 179 220 211 250 223 221 234 237 225 245 255 266 257 260 285 299 296 298 283 284 264 245 245 243 244 237 228 225 221 223 226 226 209 204 201 203 212 211 210 213 211 217 218 226 226 222 227
180 161 162 183 199 233 202 225 235 209 344 302 323 74 13 16 325 331 317 312 302 323 325 293 264 256 239 234 232 226 227 231 232 231 226 203 204 198 208 204 207 211 210 214 215 221 229 224 223
192 184 170 193 192 232 202 219 231 236 261 171 354 333 355 20 5 3 357 353 347 338 327 319 299 271 262 249 243 243 239 236 238 238 234 223 226 211 202 201 202 212 211 214 205 214 223 218 221
198 207 217 254 42 223 171 221 243 185 199 168 81 64 50 38 27 29 24 12 360 356 354 345 335 315 302 299 272 267 263 273 260 255 260 253 251 224 210 210 208 211 210 215 212 198 167 194 184
200 197 190 226 181 210 183 210 198 181 156 136 102 91 69 54 46 41 39 29 26 10 360 6 5 3 347 332 317 305 292 269 263 277 260 251 255 227 225 223 222 206 206 186 180 171 162 162 157
189 199 206 214 235 215 192 207 2 127 135 121 107 89 69 54 40 38 32 30 27 23 18 15 15 11 18 11 17 16 41 357 311 273 242 237 231 222 216 208 200 188 189 188 189 181 174 169 160
200 195 202 204 200 243 285 95 106 97 112 112 105 93 74 72 57 41 33 19 22 19 15 14 17 22 14 358 358 10 1 325 266 255 263 270 232 219 217 198 197 193 188 183 184 177 167 173 169